User: anonymous   Login
Location: Summit Observatory
(39.5293°N, 75.7290°W)
Time: 02:23:32
(UTC-04:00)
Language:

Gurwin Techsat 1B - Orbit

View from above orbital plane
View from above orbital plane
View from above satellite
View from above satellite

Ground track
Ground track

The orbit data is extracted from the following two-line orbital elements,

1 25397U 98043D   17080.83275742 -.00000007 +00000-0 +15948-4 0  9993
2 25397 098.6019 025.0494 0000290 196.0487 164.0682 14.23617407971369
Epoch (UTC): 21 March 2017 19:59:10
Eccentricity: 0.0000290
inclination: 98.6019°
perigee height: 813 km
apogee height: 813 km
right ascension of ascending node: 25.0494°
argument of perigee: 196.0487°
revolutions per day: 14.23617407
mean anomaly at epoch: 164.0682°
orbit number at epoch: 97136

The dashed part of the orbit path shows where the satellite is in the earth's shadow,  

DLR